Dewpoint
61 50 47 58 56 54 51 45 31 32 34 31 32 31 25 32 37 31 32 31 29 31 32 34 42 44 41 45 43 44 43 46 44 39 38 45 59 66 67 70 72 73 74 74 74 75 74 74 74 74 73 73 73 73 73 73 73 72 72 72 72 72 72 72 72 72 72 73 73 72 72 72 72 72 72 72 72 72 71 71 71 71 70 70 70 71 71 71 71 71 71 71 71 70 70 69 70
54 44 51 57 52 43 41 39 35 35 32 29 28 30 31 33 31 29 28 29 30 29 28 27 33 40 45 45 45 45 44 47 47 46 51 62 65 66 69 72 72 73 74 74 74 74 74 73 74 73 73 73 73 73 73 73 73 72 72 72 72 72 72 72 72 72 72 72 72 72 72 72 72 72 72 72 72 71 71 71 71 70 70 70 70 70 70 71 70 70 70 71 70 69 70 70 69
57 42 35 46 40 48 45 37 28 32 28 26 28 30 32 29 28 28 29 29 30 26 27 31 42 45 45 43 42 40 42 51 54 58 62 66 62 66 70 72 72 73 74 74 74 74 74 74 74 73 74 73 72 72 73 73 72 72 72 72 72 71 72 72 72 72 72 72 73 72 72 72 72 72 72 72 72 71 71 71 71 70 70 70 70 70 70 71 70 70 69 69 69 69 70 70 70
46 45 37 38 36 40 37 36 34 32 29 29 29 28 31 31 28 28 29 29 29 26 27 27 42 43 42 40 43 49 48 53 55 61 62 64 63 68 70 72 73 74 74 74 74 74 74 74 74 74 73 73 72 73 72 72 73 72 72 72 72 72 72 72 72 72 73 72 73 73 73 72 72 72 72 72 72 71 71 71 71 69 70 69 70 70 70 71 70 69 69 70 69 70 71 71 70
39 44 39 37 34 35 36 36 33 29 26 29 21 24 32 32 29 30 30 30 28 27 28 29 33 36 42 41 49 42 41 52 55 62 62 65 69 70 71 72 73 74 74 74 74 74 74 74 74 74 72 72 73 72 72 72 73 73 72 71 72 72 72 72 72 72 72 72 72 72 72 72 72 72 72 71 71 71 71 71 71 69 69 69 69 70 70 70 70 70 70 70 70 71 71 70 70
31 33 36 32 31 36 29 28 30 30 26 28 27 28 30 30 31 30 28 27 26 26 26 25 25 33 42 48 50 47 53 49 56 58 62 66 70 71 71 73 73 73 74 74 74 74 74 74 73 73 73 73 72 72 72 72 72 72 72 72 72 72 72 72 72 72 72 72 72 72 72 72 72 72 72 71 71 71 71 71 70 70 70 70 70 70 70 70 69 70 70 70 70 70 70 69 68
28 25 27 28 29 32 27 29 28 30 29 29 29 30 30 30 28 27 26 25 22 25 25 23 28 41 41 45 48 54 64 60 58 60 65 69 70 71 71 72 73 73 74 74 74 74 74 74 73 73 73 73 72 73 73 72 72 72 72 72 72 72 72 72 72 72 72 72 72 72 72 73 72 72 72 71 71 71 71 71 70 70 70 70 70 71 71 70 69 70 70 70 70 70 70 69 68
38 23 27 26 26 29 28 29 29 29 27 30 31 28 27 26 26 27 25 25 20 18 23 22 29 38 42 54 45 53 67 68 66 68 69 70 70 71 72 72 73 73 74 74 74 74 75 74 73 73 73 73 72 73 72 72 72 72 72 73 72 72 72 72 72 72 72 72 72 72 72 73 73 72 72 72 71 71 71 71 71 70 70 70 70 70 71 70 70 70 70 70 69 69 69 68 68
27 28 33 23 24 24 22 26 26 28 28 26 23 30 41 33 31 27 22 20 17 18 19 22 22 32 37 53 54 57 64 68 69 70 70 70 70 71 71 72 72 73 73 74 74 74 74 74 73 73 73 73 72 72 72 73 72 72 72 72 72 72 72 72 71 72 73 73 72 72 73 73 73 73 73 72 72 72 71 70 70 71 71 71 71 71 71 70 70 70 70 69 69 69 69 68 67
26 26 24 25 23 23 19 19 20 21 22 23 21 18 18 19 18 19 17 12 12 16 16 21 28 31 46 53 54 57 60 68 68 68 69 69 70 70 71 72 72 73 73 74 74 74 74 74 73 73 73 73 73 73 72 73 73 72 72 72 72 72 72 72 72 72 73 73 73 73 72 73 72 72 73 72 72 71 72 71 71 71 71 72 72 72 71 71 70 70 70 69 69 68 68 68 67
25 25 27 23 22 20 20 19 20 20 20 19 19 19 18 18 16 11 12 10 12 15 19 30 34 50 54 55 56 59 64 67 67 67 68 69 70 71 71 72 72 72 73 73 74 74 74 74 74 73 73 73 73 73 73 73 73 72 72 72 72 72 72 72 72 73 73 72 72 72 72 72 72 72 73 72 72 72 72 71 71 71 71 71 72 71 71 71 71 70 70 69 69 68 67 67 67
22 24 23 21 20 19 19 19 19 19 20 18 15 14 13 9 11 8 7 10 17 42 51 53 44 54 54 55 56 60 63 64 66 67 67 69 70 71 72 72 72 72 73 73 73 74 74 74 73 73 73 73 73 73 73 73 73 72 72 72 72 72 72 72 72 72 72 72 72 72 72 72 72 72 72 72 72 72 72 72 71 71 71 71 71 71 71 71 71 70 70 70 70 69 67 67 67
21 22 20 20 20 19 25 17 18 37 18 14 13 12 9 10 5 3 7 7 30 50 52 54 53 55 53 55 57 61 62 64 66 67 68 69 70 71 72 72 72 73 73 73 73 73 73 73 73 73 73 73 73 73 73 73 73 73 72 71 72 72 72 72 72 73 72 72 72 72 72 72 72 72 72 73 72 72 72 72 71 71 71 71 71 71 71 71 71 70 70 70 70 70 68 67 67
22 21 20 18 18 17 16 18 15 14 13 14 15 14 7 12 3 4 6 32 41 35 44 53 56 56 55 56 56 59 62 65 67 68 70 70 71 71 71 72 72 73 73 73 73 73 73 73 73 73 73 73 73 73 73 73 73 73 72 72 72 72 72 73 72 72 72 72 72 72 72 72 72 72 72 72 72 72 72 72 71 71 71 71 71 71 71 71 71 70 70 69 70 70 69 67 67
21 23 23 17 14 13 12 13 14 13 10 14 12 7 6 22 7 5 9 23 40 45 50 47 48 48 50 54 53 59 62 67 69 70 70 70 71 71 71 72 72 72 72 73 73 73 73 73 73 73 73 73 72 72 72 72 73 73 73 72 72 72 72 73 72 72 72 72 72 72 72 72 72 72 72 72 72 72 72 72 71 71 71 71 71 71 71 70 71 71 70 69 70 70 69 67 67
21 16 18 17 14 12 12 14 15 10 6 11 10 6 9 2 5 7 10 13 31 49 58 55 59 47 54 55 56 62 65 68 69 69 69 69 69 69 70 71 71 72 72 72 72 72 72 72 72 72 72 72 72 72 72 72 72 73 73 73 72 72 72 72 72 72 72 72 72 72 72 72 72 71 71 72 72 72 72 72 71 71 71 71 71 71 71 70 70 71 70 70 69 69 69 67 67
17 18 16 14 14 12 10 10 10 8 9 9 9 5 1 2 2 6 7 38 51 51 58 59 59 60 59 60 62 65 67 68 69 68 69 69 69 69 69 70 70 71 71 72 72 72 72 72 72 71 71 72 72 71 71 71 72 72 72 72 72 72 72 72 72 72 72 72 72 72 71 71 71 71 71 71 72 72 71 72 72 71 71 71 71 71 71 70 70 71 71 70 69 68 68 67 66
15 16 13 13 13 10 14 8 8 7 5 4 7 7 3 1 2 2 11 20 42 54 56 58 59 59 61 62 64 65 66 67 67 67 67 67 68 67 67 68 69 69 70 71 72 72 72 71 72 71 70 72 72 71 71 71 72 72 71 71 72 71 71 71 71 71 72 71 72 71 71 72 70 70 71 71 71 71 71 70 71 72 71 70 70 70 71 71 71 71 71 71 70 70 69 66 66
16 17 15 13 11 10 16 9 12 3 3 6 8 13 4 3 5 3 18 19 21 52 56 57 58 58 59 61 62 63 65 65 66 67 66 66 67 67 67 68 68 69 69 70 71 71 72 72 72 71 71 72 71 71 71 71 71 71 71 71 71 71 71 72 71 72 70 70 71 71 71 70 70 70 70 71 71 71 71 70 71 71 71 70 70 70 71 70 71 71 71 71 70 69 67 67 66
13 12 10 12 11 10 11 9 8 6 6 7 6 4 5 4 4 8 12 15 17 33 52 56 57 56 58 59 61 62 63 65 65 66 66 66 67 67 67 67 68 68 69 69 70 71 71 72 72 72 72 72 71 71 71 71 71 71 71 71 71 71 71 71 71 71 71 70 70 70 70 70 70 70 71 71 71 70 70 70 70 71 71 70 70 70 70 70 70 71 71 70 69 67 67 67 65
8 8 8 9 10 9 9 10 8 7 6 5 5 5 4 4 6 6 9 20 22 22 31 55 56 57 57 58 59 61 62 63 64 65 65 66 66 67 67 68 68 68 68 69 69 70 71 72 72 72 72 72 71 71 71 71 70 70 70 70 70 71 70 71 70 71 70 70 71 71 70 70 70 70 69 70 69 68 68 69 69 69 69 69 70 68 69 70 69 69 69 69 67 68 67 66 63
7 6 8 9 10 9 10 10 11 10 15 5 11 3 3 7 5 4 13 17 21 24 24 55 57 57 57 57 58 60 61 61 62 63 64 65 65 65 66 67 67 67 68 68 68 69 70 71 72 72 72 72 71 71 71 71 70 70 70 70 70 70 70 70 70 70 70 70 71 71 71 70 70 70 69 69 69 69 68 68 68 68 68 69 70 68 68 68 68 69 69 68 68 68 67 66 63
5 8 6 8 9 8 11 9 9 4 6 4 3 5 7 5 8 8 8 13 14 31 34 57 58 57 57 57 57 58 59 59 59 60 61 63 63 64 65 66 66 66 67 67 68 69 70 70 71 71 71 71 71 71 71 71 70 69 69 69 69 70 70 69 69 70 70 70 70 71 70 70 70 70 69 69 69 69 69 69 67 68 68 67 68 69 68 68 69 69 68 68 68 68 67 66 63
8 7 8 6 8 5 9 6 9 4 4 5 5 9 3 3 5 7 18 25 33 46 54 55 55 55 56 56 56 57 57 57 58 59 60 60 61 62 63 64 65 65 65 65 67 68 69 69 70 71 71 71 71 71 71 71 70 70 69 70 70 70 70 69 69 69 70 70 70 71 70 70 69 69 69 69 69 69 68 69 68 68 68 67 67 68 68 68 69 68 68 68 68 68 67 66 62
8 8 9 13 7 8 10 7 5 6 7 8 7 4 4 5 7 22 22 28 33 39 41 41 42 43 43 46 48 51 54 55 58 59 60 61 61 62 61 62 64 64 63 64 65 66 68 69 70 70 70 70 71 71 70 71 70 70 69 69 69 70 69 69 69 69 70 70 70 70 70 69 69 69 69 69 69 68 67 69 69 68 67 67 67 67 68 68 68 68 67 67 67 67 67 66 63
8 7 11 9 8 10 8 7 11 7 7 7 4 6 8 6 9 20 19 24 32 42 45 47 50 51 51 51 51 50 51 53 57 60 60 61 61 61 61 62 63 63 63 64 65 66 67 68 68 69 69 70 70 70 70 70 70 70 69 69 69 69 69 69 69 69 70 70 70 70 70 69 69 68 68 69 69 68 68 68 69 69 68 67 68 68 68 68 68 68 67 67 67 67 66 66 63
7 9 10 4 3 5 7 2 3 10 6 7 12 15 17 16 20 21 18 31 41 47 49 50 52 53 54 55 56 56 56 55 57 59 61 61 61 61 61 61 62 62 63 63 64 65 66 66 67 67 68 68 69 69 69 69 69 70 70 69 69 68 69 69 69 69 69 70 70 70 70 69 69 68 68 68 68 68 68 67 68 68 68 68 68 68 68 68 68 67 67 67 67 66 67 67 63
6 4 4 3 2 2 2 3 2 2 3 12 17 19 22 23 13 15 24 38 46 46 47 49 51 53 55 57 58 58 59 58 59 59 59 60 60 61 60 60 60 60 61 62 64 65 65 65 66 66 67 67 68 68 69 68 68 69 69 70 69 69 69 68 69 69 69 69 70 70 69 69 69 68 68 68 68 68 68 67 67 67 67 68 68 68 68 68 67 67 67 67 67 67 67 66 64
6 3 1 2 1 -0 -1 1 3 4 2 5 12 18 23 27 23 24 35 40 44 45 45 47 48 50 52 54 55 56 58 60 61 61 61 61 61 61 60 60 60 60 62 63 63 63 63 64 65 65 66 66 66 67 67 67 67 67 68 68 69 69 69 68 68 68 68 69 69 69 69 68 69 68 67 68 68 68 68 67 67 67 67 67 68 68 67 68 67 67 67 67 66 66 66 66 65
9 3 1 0 2 -3 -0 7 3 9 10 5 11 17 23 28 31 34 36 38 42 43 44 45 46 47 48 49 52 53 54 54 56 59 60 61 62 62 62 62 62 61 61 61 61 61 62 62 63 64 65 65 66 66 67 66 66 66 67 68 68 68 69 68 68 68 68 68 68 69 69 68 68 68 67 67 68 67 67 67 67 67 67 67 67 68 67 67 67 66 66 66 66 66 65 66 65
2 5 5 4 5 -0 3 14 15 18 17 24 24 23 26 29 32 33 35 38 42 41 42 43 45 46 48 49 49 48 48 49 49 51 54 57 60 61 62 62 62 62 62 61 61 61 61 62 64 63 65 65 66 66 67 66 66 66 67 67 67 67 68 68 68 68 67 67 67 68 68 68 68 68 68 67 67 67 67 66 66 65 65 66 66 67 67 66 66 65 65 64 65 66 65 65 65
17 6 7 9 5 3 4 25 12 17 22 25 28 27 29 30 31 33 35 38 40 39 40 41 43 45 46 46 45 45 45 46 47 48 49 51 53 57 60 60 61 61 61 61 61 61 60 61 63 62 62 62 63 65 65 66 66 66 66 66 66 66 67 67 68 67 67 67 67 67 67 68 68 68 67 67 67 67 66 66 66 65 65 65 65 65 66 66 65 64 64 64 63 63 64 64 65
16 10 7 13 10 6 10 22 27 24 27 28 24 27 30 31 31 34 38 39 38 38 38 38 40 41 42 43 43 43 43 43 43 45 47 48 50 50 52 54 55 56 56 56 57 59 60 60 61 61 61 62 62 63 64 65 65 66 66 66 66 66 66 67 67 67 67 67 66 66 67 67 68 68 67 67 67 67 67 66 66 65 65 65 65 64 65 65 65 64 63 63 63 62 63 63 64
14 19 15 16 8 10 17 11 28 29 29 28 29 28 29 30 32 34 37 38 37 37 37 38 39 39 40 40 41 41 42 42 43 44 47 48 48 50 50 54 53 53 53 53 54 55 57 58 59 61 62 62 62 62 63 64 65 66 66 65 66 66 66 66 66 67 66 67 66 66 66 67 67 67 67 67 67 67 67 66 66 65 65 64 64 64 64 64 64 64 63 63 62 62 61 62 63
12 15 20 17 18 16 12 19 26 29 30 29 30 30 30 31 32 34 35 36 37 37 38 38 38 38 39 40 40 40 41 41 43 44 47 47 48 48 48 49 50 51 50 51 51 52 53 55 57 58 59 60 61 62 62 63 65 66 66 65 65 65 65 66 66 66 66 66 66 66 66 66 67 67 67 67 66 66 66 66 65 65 65 64 63 63 63 63 63 63 63 62 63 62 61 61 62
11 13 13 17 19 20 21 24 25 29 28 29 29 29 30 31 32 33 36 37 37 37 38 38 39 39 39 39 40 40 41 41 44 46 47 47 47 48 47 48 48 49 49 49 50 50 51 52 52 52 54 58 61 62 63 63 65 65 65 65 65 64 64 65 65 65 65 66 66 66 66 66 66 67 66 66 66 66 65 65 65 65 65 64 63 62 62 62 62 62 62 62 61 62 62 61 61
13 16 18 20 21 22 24 25 27 28 28 27 28 29 29 30 31 33 35 36 37 37 37 38 38 39 39 39 39 40 41 41 43 45 45 46 47 47 47 47 47 47 47 47 47 48 49 50 50 49 52 55 59 62 63 64 64 64 65 65 65 65 64 64 63 64 64 65 65 66 66 66 66 66 67 66 66 66 65 65 64 64 64 64 64 63 63 62 62 62 62 62 61 61 61 61 61
20 20 20 20 22 22 25 25 26 26 28 27 29 30 30 31 33 34 36 36 35 36 37 37 38 38 39 39 40 40 41 43 43 42 44 45 45 46 46 46 50 44 46 46 46 47 48 48 48 49 51 53 55 58 62 64 65 65 64 64 64 63 63 63 64 64 64 65 65 65 65 66 65 65 66 66 66 65 65 64 64 64 64 64 64 64 63 64 63 62 62 61 62 61 60 60 61
22 19 21 22 23 24 26 27 28 29 29 27 30 30 31 32 34 36 36 36 37 37 38 38 38 38 39 39 40 41 41 41 42 42 43 44 45 45 44 45 45 45 45 44 45 46 47 47 47 48 50 52 53 55 58 62 65 65 65 63 62 62 64 63 64 64 65 65 65 65 65 65 66 65 65 65 65 65 65 64 64 64 64 64 64 63 63 63 63 62 62 61 61 61 61 61 61
21 21 21 21 25 21 22 27 31 29 28 28 30 31 31 33 34 35 36 38 38 39 39 38 39 39 39 39 40 40 41 41 41 42 42 43 44 43 43 43 43 42 42 42 44 44 46 48 46 47 49 51 52 54 57 59 64 65 64 63 63 63 62 63 63 64 64 64 64 64 65 65 65 64 64 65 65 65 65 65 64 64 64 64 64 63 63 63 63 62 62 62 61 60 59 59 61
22 23 22 22 25 24 24 25 29 29 29 30 30 30 30 31 33 34 35 37 38 38 39 39 39 40 41 41 41 43 41 42 41 41 42 43 43 42 42 44 42 41 42 42 44 44 45 45 46 47 48 50 51 55 54 57 63 64 63 63 63 62 63 63 62 62 63 63 63 64 64 65 65 65 65 65 66 65 65 65 65 64 64 64 64 63 63 62 62 62 62 62 61 60 59 59 60
21 27 24 23 24 25 26 27 27 27 28 29 27 23 26 30 32 33 34 36 36 37 38 38 39 39 40 40 40 41 42 42 42 42 43 43 43 43 42 42 41 41 41 43 44 45 45 45 46 46 47 50 50 52 54 57 60 63 63 62 61 61 61 61 60 60 61 62 62 63 65 66 65 65 66 65 65 66 65 64 64 64 64 64 63 63 63 63 62 62 62 62 61 61 60 59 59
22 21 25 24 25 26 25 24 26 24 25 28 29 23 20 27 30 32 33 35 35 36 37 38 39 40 40 41 41 41 41 41 42 43 43 43 43 42 41 41 41 41 42 43 45 45 45 46 46 46 47 49 50 51 53 56 57 60 62 62 62 62 61 62 62 62 62 62 63 63 63 64 65 66 65 65 65 65 65 65 64 64 64 64 64 63 63 62 62 61 62 62 61 61 61 59 59
19 20 24 24 25 25 24 23 23 23 31 31 31 25 24 23 28 33 34 35 35 35 36 37 39 39 40 41 41 41 41 42 42 42 43 43 43 43 41 41 41 41 42 44 45 45 45 45 46 47 48 49 49 51 53 54 55 57 59 61 62 62 62 62 62 62 62 63 63 63 64 64 64 65 66 66 66 65 66 65 64 64 64 63 64 63 63 62 62 62 62 62 62 61 61 60 60
18 21 25 24 24 24 24 24 29 29 25 23 27 30 23 23 27 34 34 33 33 34 35 36 37 38 39 40 40 41 41 42 42 42 42 42 42 41 42 41 41 42 44 44 45 45 46 46 47 48 47 48 48 50 53 52 54 55 57 60 60 61 61 62 62 62 62 62 62 62 63 64 65 65 65 65 66 66 66 65 65 64 64 64 64 63 63 63 62 62 62 62 62 62 62 61 61
27 28 32 32 32 33 31 30 28 26 21 18 23 28 20 21 27 31 32 32 32 34 35 36 37 38 39 39 40 41 42 42 42 43 42 42 42 41 42 42 42 43 44 46 46 46 46 47 47 48 47 48 49 50 50 51 52 54 55 58 59 59 60 60 61 61 61 62 62 62 62 63 64 64 65 65 65 65 65 66 65 65 64 64 64 64 63 63 63 62 62 62 62 62 62 62 61
29 28 26 26 26 28 31 27 27 24 17 21 26 30 23 20 27 31 30 30 32 33 35 36 37 37 39 40 40 41 41 41 42 42 43 42 42 41 42 41 42 43 44 45 45 46 47 47 47 47 47 48 49 49 50 50 51 52 53 55 57 58 58 59 60 61 62 62 61 61 62 62 63 63 64 65 65 65 65 65 65 65 65 65 64 64 64 63 63 63 63 62 62 62 62 62 61
28 27 25 24 25 24 24 24 24 18 16 21 24 30 24 20 23 28 31 33 33 33 34 34 35 36 38 39 40 41 42 41 42 42 42 41 40 40 41 41 42 42 43 44 44 45 46 47 47 47 48 48 49 49 50 50 51 52 52 53 54 56 58 59 59 60 61 61 61 61 62 62 63 63 64 64 64 65 65 65 65 65 65 65 64 64 64 65 65 64 64 63 63 63 63 62 61
26 25 24 21 15 19 15 20 16 15 19 22 29 26 24 22 25 28 30 31 33 34 34 34 35 36 38 39 40 41 42 41 41 41 40 40 40 40 40 41 41 42 42 43 44 45 45 46 47 47 47 48 49 49 50 51 52 52 52 51 52 54 57 58 59 60 61 61 62 61 61 62 63 63 63 64 64 64 65 64 65 65 65 65 65 65 65 65 65 64 64 63 63 62 62 62 62
23 23 22 20 13 12 11 10 17 19 21 27 28 28 23 26 27 30 30 31 33 34 35 36 36 36 37 39 40 41 40 40 40 40 39 39 40 40 41 41 41 42 42 43 43 46 45 46 46 47 47 48 49 49 50 51 51 52 52 52 53 54 56 58 59 61 61 62 62 62 61 61 62 62 63 63 64 64 65 64 65 65 65 65 66 65 65 65 64 64 63 63 62 62 62 62 61
22 24 22 22 20 15 9 16 11 13 21 24 27 23 22 22 25 31 32 33 35 35 35 36 37 37 38 38 39 40 40 40 40 39 39 39 40 40 40 41 41 42 42 43 43 43 44 45 46 47 47 48 49 50 51 51 51 52 52 52 54 55 56 57 59 61 62 62 63 63 62 62 61 61 62 62 63 64 64 64 65 65 65 65 65 66 65 65 64 64 64 64 63 63 63 62 62
23 25 23 21 20 23 16 19 19 20 21 19 25 21 23 25 29 36 35 34 35 39 36 40 37 39 39 38 39 39 39 39 40 39 38 39 39 40 41 41 42 42 43 43 43 44 44 44 46 47 47 48 49 50 50 51 51 52 53 53 54 56 58 59 59 61 62 63 63 63 63 62 62 62 62 62 62 63 63 63 63 63 64 65 65 65 65 65 64 64 64 64 63 64 63 63 62
24 20 19 21 25 24 19 19 23 20 17 13 18 25 27 29 30 31 33 33 33 33 36 36 37 38 38 38 38 38 39 39 39 39 37 38 39 40 41 41 42 42 42 43 43 44 44 44 45 47 47 48 48 50 50 50 52 52 53 54 54 55 57 57 58 59 60 61 63 64 63 63 63 63 62 62 61 62 62 62 62 63 64 64 64 65 65 64 64 64 64 63 63 64 63 63 63
24 20 21 28 31 27 21 14 13 10 11 12 23 22 23 22 19 31 31 32 32 32 34 35 35 36 37 38 38 38 38 38 39 40 40 40 40 42 41 41 42 42 43 43 43 44 44 44 45 47 47 47 48 49 49 50 51 52 53 53 53 54 55 56 57 59 60 61 61 62 63 63 63 63 62 62 62 61 62 62 62 63 64 64 64 64 64 64 64 63 62 62 63 63 63 63 63
24 22 27 23 14 18 23 18 11 11 11 9 19 22 22 23 24 27 28 30 31 31 31 32 33 35 37 37 38 38 39 39 38 39 38 39 39 39 40 41 41 42 43 43 43 44 43 43 45 48 47 48 48 49 49 50 52 53 53 53 53 54 54 55 55 56 58 59 60 61 62 62 63 63 62 62 62 62 62 62 62 62 63 63 63 63 63 63 63 62 62 61 62 63 62 62 62
31 26 25 30 25 23 17 15 20 19 5 12 15 21 18 25 25 28 29 29 30 30 28 30 32 34 37 37 37 37 37 38 38 38 39 39 40 40 40 41 41 42 43 44 44 43 42 42 44 46 47 47 48 48 49 49 51 52 52 52 53 53 54 54 55 55 55 56 57 59 60 61 62 63 63 62 62 62 62 62 62 62 62 63 63 63 63 63 62 62 62 61 61 63 62 62 62
28 25 23 24 24 26 23 23 20 16 7 7 9 10 19 25 28 28 29 29 29 29 28 29 30 32 35 37 37 37 37 38 39 39 39 39 39 40 40 41 42 43 44 44 42 42 42 42 43 45 46 46 47 48 48 49 50 50 50 50 51 52 52 53 53 54 54 55 56 57 58 60 61 61 62 62 63 62 62 62 62 62 62 63 63 63 63 63 62 62 62 62 62 62 62 63 63
28 25 22 23 21 17 14 14 23 21 16 11 12 12 20 24 31 29 29 29 29 28 28 28 29 31 34 36 37 37 37 38 39 39 39 39 40 40 40 41 42 43 42 41 42 42 41 41 42 45 45 45 46 47 48 48 49 49 49 49 50 51 51 52 52 53 54 54 54 56 56 58 60 61 62 62 62 62 62 62 62 62 63 63 64 63 63 63 63 62 62 62 62 62 62 62 62